Location: Oshawa
(43.9000°N, 78.8670°W)
Time: 01:46:31
(UTC-04:00)

Cosmos 1707 Rocket - Visible Passes

Search period start: 21 April 2018 00:00
Search period end: 01 May 2018 00:00
Orbit: 604 x 633 km, 82.5° (Epoch: 20 April)

Date Brightness Start Highest point End Pass type
(mag) Time Alt. Az. Time Alt. Az. Time Alt. Az.
21 Apr 4.5 21:52:59 28° E 21:52:59 28° E 21:56:37 10° NNE visible
21 Apr 5.4 23:30:05 24° W 23:30:42 25° WNW 23:34:19 10° NNW visible
22 Apr 3.6 22:09:25 49° ESE 22:09:56 53° E 22:14:10 10° NNE visible
22 Apr 6.1 23:46:31 12° W 23:48:09 15° WNW 23:50:35 10° NNW visible
23 Apr 3.5 22:25:48 45° SSW 22:27:05 82° W 22:31:26 10° N visible
24 Apr 5.1 21:05:01 13° ESE 21:06:50 17° E 21:09:36 10° NE visible
24 Apr 4.6 22:42:06 24° SW 22:44:19 43° WNW 22:48:28 10° N visible
25 Apr 4.4 21:21:13 17° SE 21:23:48 30° E 21:27:34 10° NNE visible
25 Apr 5.6 22:58:17 11° SW 23:01:39 24° WNW 23:05:12 10° NNW visible
26 Apr 3.6 21:37:18 14° S 21:40:51 55° E 21:45:05 10° NNE visible
26 Apr 6.3 23:16:46 10° W 23:19:06 14° WNW 23:21:25 10° NW visible
27 Apr 3.6 21:53:41 10° SSW 21:58:00 79° W 22:02:21 10° N visible
28 Apr 4.7 22:11:09 10° SSW 22:15:15 41° WNW 22:19:23 10° N visible
29 Apr 4.4 20:50:56 10° SSE 20:54:43 31° E 20:58:32 10° NNE visible
29 Apr 5.8 22:29:05 10° SW 22:32:35 24° WNW 22:36:06 10° NNW visible
30 Apr 3.6 21:07:33 10° S 21:11:46 57° E 21:16:02 10° NNE visible
30 Apr 6.5 22:47:49 10° W 22:50:02 14° WNW 22:52:16 10° NW visible
